Cape Cod CGAS, MA

7:18 PM EDT on May 26, 2017 (GMT -0400)
Cape Cod Coast Guard Air Station

Weather History for KFMH - February, 2013

Change the Weather History Date:

Wednesday, February 20, 2013

  Actual Average Record
Temperature  
Mean Temperature 34 °F -  
Max Temperature 41 °F 37 °F 51 °F (2002)
Min Temperature 26 °F 21 °F 3 °F (2015)
Degree Days  
Heating Degree Days 32    
Moisture  
Dew Point 20 °F    
Average Humidity 62    
Maximum Humidity 100    
Minimum Humidity 30    
Precipitation  
Precipitation 0.01 in - - ()
Sea Level Pressure  
Sea Level Pressure 29.66 in    
Wind  
Wind Speed 14 mph (West)    
Max Wind Speed 25 mph    
Max Gust Speed 32 mph    
Visibility 10 miles    
Events      
Averages and records for this station are not official NWS values.
T = Trace of Precipitation, MM = Missing Value Source: NWS Daily Summary

Daily Weather History Graph

Daily Weather History Graph

Search for Another Location

Airport or City:

Trip Planner

Search our weather history database for the weather conditions in past years. The results will help you decide how hot, cold, wet, or windy it might be!

Date:

Astronomy

Feb. 20, 2013 Rise Set
Actual Time 6:30 AM EST 5:22 PM EST
Civil Twilight 6:01 AM EST 5:50 PM EST
Nautical Twilight 5:29 AM EST 6:22 PM EST
Astronomical Twilight 4:57 AM EST 6:54 PM EST
Moon 12:38 PM EST (2/20) 2:50 AM EST (2/20)
Length of Visible Light 11h 48m
Length of Day
10h 51m
Waxing Gibbous, 76% of the Moon is Illuminated
Feb 20
Waxing Gibbous
Feb 25
Full
Mar 4
Last Quarter
Mar 11
New
Mar 19
First Quarter

Hourly Weather History & Observations

Time (EST) Temp. Windchill Dew Point Humidity Pressure Visibility Wind Dir Wind Speed Gust Speed Precip Events Conditions
12:15 AM 41.0 °F 36.4 °F 41.0 °F 100% 29.59 in 4.0 mi SW 6.9 mph - N/A   Overcast
12:35 AM 41.0 °F 36.4 °F 39.2 °F 93% 29.58 in 10.0 mi West 6.9 mph - N/A   Overcast
12:55 AM 41.0 °F 36.4 °F 39.2 °F 93% 29.58 in 10.0 mi WSW 6.9 mph - N/A   Overcast
1:15 AM 41.0 °F 36.4 °F 39.2 °F 93% 29.57 in 10.0 mi WSW 6.9 mph - N/A   Overcast
1:35 AM 39.2 °F 35.0 °F 39.2 °F 100% 29.57 in 10.0 mi WSW 5.8 mph - N/A   Overcast
1:55 AM 39.2 °F 35.0 °F 39.2 °F 100% 29.57 in 6.0 mi WSW 5.8 mph - N/A   Overcast
2:15 AM 39.2 °F 31.6 °F 39.2 °F 100% 29.57 in 6.0 mi WSW 12.7 mph 19.6 mph N/A   Overcast
2:35 AM 39.2 °F 31.6 °F 39.2 °F 100% 29.57 in 10.0 mi West 12.7 mph - N/A   Overcast
2:55 AM 39.2 °F 32.0 °F 37.4 °F 93% 29.57 in 10.0 mi West 11.5 mph - N/A   Overcast
3:15 AM 39.2 °F 31.6 °F 37.4 °F 93% 29.57 in 10.0 mi West 12.7 mph - N/A   Overcast
3:35 AM 37.4 °F 29.8 °F 37.4 °F 100% 29.57 in 10.0 mi WSW 11.5 mph - N/A   Overcast
3:55 AM 37.4 °F 29.3 °F 35.6 °F 93% 29.57 in 10.0 mi WSW 12.7 mph - N/A   Mostly Cloudy
4:15 AM 35.6 °F 27.1 °F 33.8 °F 93% 29.57 in 10.0 mi WSW 12.7 mph - N/A   Mostly Cloudy
4:35 AM 35.6 °F 27.1 °F 33.8 °F 93% 29.58 in 10.0 mi West 12.7 mph - N/A   Mostly Cloudy
4:55 AM 35.6 °F 27.1 °F 33.8 °F 93% 29.58 in 10.0 mi West 12.7 mph - N/A   Overcast
5:15 AM 35.6 °F 28.0 °F 32.0 °F 87% 29.59 in 10.0 mi West 10.4 mph - N/A   Overcast
5:35 AM 35.6 °F 28.0 °F 32.0 °F 87% 29.59 in 10.0 mi West 10.4 mph - N/A   Overcast
5:55 AM 35.6 °F 25.9 °F 32.0 °F 87% 29.60 in 10.0 mi West 16.1 mph - N/A   Overcast
6:15 AM 33.8 °F 23.9 °F 32.0 °F 93% 29.61 in 10.0 mi WNW 15.0 mph - N/A   Mostly Cloudy
6:35 AM 32.0 °F 21.2 °F 28.4 °F 87% 29.62 in 10.0 mi West 16.1 mph 21.9 mph N/A   Overcast
6:55 AM 32.0 °F 23.0 °F 28.4 °F 87% 29.63 in 10.0 mi WNW 11.5 mph - N/A   Overcast
7:15 AM 32.0 °F 22.5 °F 28.4 °F 87% 29.64 in 10.0 mi West 12.7 mph - N/A   Overcast
7:35 AM 32.0 °F 21.6 °F 26.6 °F 80% 29.65 in 10.0 mi West 15.0 mph 19.6 mph N/A   Overcast
7:55 AM 32.0 °F 22.1 °F 26.6 °F 80% 29.65 in 10.0 mi West 13.8 mph 17.3 mph N/A   Overcast
8:15 AM 32.0 °F 22.5 °F 24.8 °F 75% 29.66 in 10.0 mi West 12.7 mph 23.0 mph N/A   Overcast
8:35 AM 33.8 °F 22.8 °F 26.6 °F 75% 29.66 in 10.0 mi West 18.4 mph 21.9 mph N/A   Overcast
8:55 AM 33.8 °F 22.2 °F 21.2 °F 60% 29.67 in 10.0 mi WNW 20.7 mph 27.6 mph N/A   Overcast
9:15 AM 32.0 °F 19.8 °F 19.4 °F 60% 29.67 in 10.0 mi West 20.7 mph 25.3 mph N/A   Overcast
9:35 AM 32.0 °F 20.1 °F 19.4 °F 60% 29.67 in 10.0 mi WNW 19.6 mph 23.0 mph N/A   Overcast
9:55 AM 33.8 °F 22.2 °F 17.6 °F 52% 29.67 in 10.0 mi WNW 20.7 mph 31.1 mph N/A   Mostly Cloudy
10:15 AM 35.6 °F 26.6 °F 19.4 °F 52% 29.67 in 10.0 mi WNW 13.8 mph 27.6 mph N/A   Partly Cloudy
10:35 AM 35.6 °F 25.2 °F 19.4 °F 52% 29.67 in 10.0 mi West 18.4 mph 23.0 mph N/A   Clear
10:55 AM 35.6 °F 25.5 °F 17.6 °F 48% 29.67 in 10.0 mi WNW 17.3 mph 23.0 mph N/A   Clear
11:15 AM 35.6 °F 25.2 °F 17.6 °F 48% 29.67 in 10.0 mi West 18.4 mph 26.5 mph N/A   Clear
11:35 AM 35.6 °F 23.7 °F 17.6 °F 48% 29.66 in 10.0 mi West 24.2 mph 32.2 mph N/A   Partly Cloudy
11:55 AM 37.4 °F 26.9 °F 17.6 °F 45% 29.66 in 10.0 mi West 20.7 mph 27.6 mph N/A   Partly Cloudy
12:15 PM 35.6 °F 24.8 °F 15.8 °F 44% 29.65 in 10.0 mi West 19.6 mph 28.8 mph N/A   Scattered Clouds
12:35 PM 37.4 °F 28.2 °F 15.8 °F 41% 29.65 in 10.0 mi WNW 16.1 mph 25.3 mph N/A   Mostly Cloudy
12:55 PM 35.6 °F 25.2 °F 15.8 °F 44% 29.64 in 10.0 mi WNW 18.4 mph 28.8 mph N/A   Overcast
1:15 PM 35.6 °F 25.2 °F 14.0 °F 41% 29.64 in 10.0 mi WNW 18.4 mph 28.8 mph N/A   Scattered Clouds
1:35 PM 35.6 °F 25.2 °F 14.0 °F 41% 29.64 in 10.0 mi West 18.4 mph 27.6 mph N/A   Partly Cloudy
1:55 PM 35.6 °F 24.0 °F 14.0 °F 41% 29.64 in 10.0 mi West 23.0 mph 29.9 mph N/A   Scattered Clouds
2:15 PM 35.6 °F 25.9 °F 14.0 °F 41% 29.64 in 10.0 mi West 16.1 mph 26.5 mph N/A   Partly Cloudy
2:35 PM 35.6 °F 24.8 °F 12.2 °F 38% 29.65 in 10.0 mi West 19.6 mph 25.3 mph N/A   Partly Cloudy
2:55 PM 35.6 °F 23.7 °F 12.2 °F 38% 29.65 in 10.0 mi West 24.2 mph 29.9 mph N/A   Scattered Clouds
3:15 PM 33.8 °F 22.8 °F 10.4 °F 38% 29.65 in 10.0 mi West 18.4 mph 29.9 mph N/A   Mostly Cloudy
3:35 PM 32.0 °F 19.5 °F 10.4 °F 41% 29.66 in 10.0 mi West 21.9 mph 31.1 mph N/A   Scattered Clouds
3:55 PM 32.0 °F 19.8 °F 10.4 °F 41% 29.67 in 10.0 mi WNW 20.7 mph 31.1 mph N/A   Scattered Clouds
4:15 PM 32.0 °F 19.5 °F 8.6 °F 38% 29.67 in 10.0 mi WNW 21.9 mph 31.1 mph N/A   Partly Cloudy
4:35 PM 32.0 °F 19.2 °F 8.6 °F 38% 29.67 in 10.0 mi WNW 23.0 mph 32.2 mph N/A   Partly Cloudy
4:55 PM 32.0 °F 20.1 °F 8.6 °F 38% 29.68 in 10.0 mi WNW 19.6 mph 25.3 mph N/A   Scattered Clouds
5:15 PM 32.0 °F 18.6 °F 8.6 °F 38% 29.68 in 10.0 mi West 25.3 mph 32.2 mph N/A   Mostly Cloudy
5:35 PM 30.2 °F 17.8 °F 10.4 °F 44% 29.69 in 10.0 mi West 19.6 mph 26.5 mph N/A   Scattered Clouds
5:55 PM 30.2 °F 17.1 °F 10.4 °F 44% 29.70 in 10.0 mi West 21.9 mph 26.5 mph N/A   Mostly Cloudy
6:15 PM 28.4 °F 15.8 °F 10.4 °F 47% 29.71 in 10.0 mi West 18.4 mph 25.3 mph N/A   Mostly Cloudy
6:35 PM 28.4 °F 14.1 °F 8.6 °F 43% 29.72 in 10.0 mi WNW 24.2 mph 31.1 mph N/A   Overcast
6:55 PM 28.4 °F 14.7 °F 8.6 °F 43% 29.72 in 10.0 mi WNW 21.9 mph 29.9 mph N/A   Overcast
7:15 PM 28.4 °F 16.6 °F 8.6 °F 43% 29.73 in 10.0 mi WNW 16.1 mph 27.6 mph N/A   Mostly Cloudy
7:35 PM 28.4 °F 17.0 °F 8.6 °F 43% 29.73 in 10.0 mi WNW 15.0 mph 27.6 mph N/A   Scattered Clouds
7:55 PM 28.4 °F 15.4 °F 8.6 °F 43% 29.74 in 10.0 mi WNW 19.6 mph 27.6 mph N/A   Clear
8:15 PM 26.6 °F 14.7 °F 8.6 °F 47% 29.75 in 10.0 mi West 15.0 mph 24.2 mph N/A   Clear
8:35 PM 26.6 °F 13.4 °F 8.6 °F 47% 29.76 in 10.0 mi West 18.4 mph 28.8 mph N/A   Clear
8:55 PM 26.6 °F 13.4 °F 8.6 °F 47% 29.75 in 10.0 mi West 18.4 mph 26.5 mph N/A   Partly Cloudy
9:15 PM 26.6 °F 12.0 °F 8.6 °F 47% 29.76 in 10.0 mi West 23.0 mph 27.6 mph N/A   Mostly Cloudy
9:35 PM 26.6 °F 13.8 °F 10.4 °F 51% 29.76 in 10.0 mi WNW 17.3 mph 25.3 mph N/A   Overcast
9:55 PM 26.6 °F 12.4 °F 10.4 °F 51% 29.77 in 10.0 mi WNW 21.9 mph 27.6 mph N/A   Overcast
10:15 PM 26.6 °F 14.7 °F 10.4 °F 51% 29.78 in 10.0 mi West 15.0 mph 25.3 mph N/A   Overcast
10:35 PM 26.6 °F 13.4 °F 10.4 °F 51% 29.78 in 10.0 mi WNW 18.4 mph 27.6 mph N/A   Overcast
10:55 PM 26.6 °F 13.1 °F 10.4 °F 51% 29.78 in 10.0 mi West 19.6 mph 24.2 mph N/A   Partly Cloudy
11:15 PM 26.6 °F 14.3 °F 10.4 °F 51% 29.79 in 10.0 mi West 16.1 mph 21.9 mph N/A   Clear
11:35 PM 26.6 °F 15.2 °F 10.4 °F 51% 29.79 in 10.0 mi West 13.8 mph 25.3 mph N/A   Scattered Clouds
11:55 PM 26.6 °F 14.7 °F 12.2 °F 55% 29.79 in 10.0 mi WNW 15.0 mph - N/A   Mostly Cloudy